DW8903 Weather Reports


time (UTC)temp
C
wind
direction
speed
KPH
gust
KPH
rain 1hr
cm
rain 24hr
cm
rain mn
cm
humidity
%
barometer
mb
20260507090035 11 242 3.2 11.3 0.00 0.00 0.00 22 1016.3
20260507084542 11 250 1.6 6.4 0.00 0.00 0.00 22 1016.5
20260507083032 11 240 0.0 6.4 0.00 0.00 0.00 26 1016.5
20260507081529 10 182 1.6 4.8 0.00 0.00 0.00 28 1016.5
20260507080027 9 156 0.0 9.7 0.00 0.00 0.00 28 1016.6
20260507074625 9 177 1.6 4.8 0.00 0.00 0.00 29 1016.5
20260507073124 9 262 0.0 4.8 0.00 0.00 0.00 34 1016.6
20260507071524 8 219 0.0 4.8 0.00 0.00 0.00 34 1016.6
20260507070018 8 171 0.0 3.2 0.00 0.00 0.00 36 1016.6
20260507064515 7 146 0.0 4.8 0.00 0.00 0.00 38 1016.6
20260507063015 7 74 1.6 6.4 0.00 0.00 0.00 42 1016.6
20260507061511 7 84 0.0 4.8 0.00 0.00 0.00 46 1016.6
20260507060014 6 115 1.6 4.8 0.00 0.00 0.00 47 1016.6
20260507054504 5 112 0.0 4.8 0.00 0.00 0.00 54 1016.5
20260507053108 4 67 1.6 6.4 0.00 0.00 0.00 57 1016.6
20260507051559 3 61 1.6 6.4 0.00 0.00 0.00 63 1016.4
20260507050055 0 56 1.6 4.8 0.00 0.00 0.00 73 1016.4
20260507044554 -1 34 1.6 4.8 0.00 0.00 0.00 74 1016.5
20260507043043 -2 296 0.0 0.0 0.00 0.00 0.00 75 1016.5
20260507041552 -3 294 0.0 0.0 0.00 0.00 0.00 78 1016.6
20260507040043 -4 294 0.0 0.0 0.00 0.00 0.00 81 1016.5
20260507034540 -5 294 0.0 0.0 0.00 0.00 0.00 83 1016.5
20260507033041 -5 178 0.0 0.0 0.00 0.00 0.00 84 1016.4
20260507031541 -6 178 0.0 0.0 0.00 0.00 0.00 84 1016.4
20260507030037 -6 178 0.0 0.0 0.00 0.00 0.00 85 1016.3
20260507024537 -6 177 0.0 0.0 0.00 0.00 0.00 84 1016.3
20260507023033 -6 177 0.0 0.0 0.00 0.00 0.00 83 1016.4
20260507021536 -6 178 0.0 0.0 0.00 0.00 0.00 82 1016.3
20260507020030 -6 177 0.0 0.0 0.00 0.00 0.00 82 1016.1
20260507014530 -6 198 0.0 3.2 0.00 0.00 0.00 82 1016.1
20260507013026 -6 198 0.0 3.2 0.00 0.00 0.00 81 1016.1
20260507011526 -5 198 1.6 3.2 0.00 0.00 0.00 80 1016.0
20260507010032 -6 198 1.6 3.2 0.00 0.00 0.00 81 1016.1
20260507004523 -5 198 0.0 4.8 0.00 0.00 0.00 81 1016.0
20260507003022 -5 309 0.0 0.0 0.00 0.00 0.00 80 1015.7
20260507001520 -6 309 0.0 0.0 0.00 0.00 0.00 81 1015.8
20260507000025 -5 309 0.0 0.0 0.00 0.00 0.00 79 1015.6
20260506234516 -5 309 0.0 0.0 0.00 0.00 0.00 78 1015.7
20260506233016 -5 309 0.0 0.0 0.00 0.00 0.00 78 1015.6
20260506231518 -5 309 0.0 0.0 0.00 0.00 0.00 77 1015.5
20260506230012 -5 309 0.0 0.0 0.00 0.00 0.00 76 1015.5
20260506224509 -4 309 0.0 0.0 0.00 0.00 0.00 75 1015.4
20260506223008 -3 309 0.0 0.0 0.00 0.00 0.00 74 1015.3
20260506221506 -4 309 0.0 0.0 0.00 0.00 0.00 74 1015.3
20260506220005 -3 309 0.0 0.0 0.00 0.00 0.00 73 1015.2
20260506214503 -3 309 0.0 0.0 0.00 0.00 0.00 74 1015.2
20260506213102 -2 309 0.0 0.0 0.00 0.00 0.00 71 1015.1
20260506211558 -2 309 0.0 0.0 0.00 0.00 0.00 71 1015.0
20260506210055 -2 309 0.0 0.0 0.00 0.00 0.00 68 1014.9
20260506204556 -2 309 0.0 0.0 0.00 0.00 0.00 68 1014.9
20260506203054 -2 309 0.0 0.0 0.00 0.00 0.00 67 1014.9
20260506201554 -2 309 0.0 0.0 0.00 0.00 0.00 67 1014.9
20260506200055 -1 309 0.0 0.0 0.00 0.00 0.00 65 1015.0
20260506194553 -1 309 0.0 1.6 0.00 0.00 0.00 65 1014.9
20260506193055 0 309 0.0 0.0 0.00 0.00 0.00 61 1014.9
20260506191558 0 309 0.0 4.8 0.00 0.00 0.00 61 1014.8
20260506190052 0 309 1.6 3.2 0.00 0.00 0.00 57 1014.8
20260506184555 1 309 3.2 6.4 0.00 0.00 0.00 55 1014.7
20260506183100 2 309 3.2 4.8 0.00 0.00 0.00 52 1014.6
20260506181601 3 309 1.6 4.8 0.00 0.00 0.00 44 1014.6
20260506180048 5 314 3.2 4.8 0.00 0.00 0.00 39 1014.5
20260506174548 5 314 1.6 3.2 0.00 0.00 0.00 35 1014.5
20260506173113 6 314 1.6 4.8 0.00 0.00 0.00 34 1014.3
20260506171546 6 314 3.2 6.4 0.00 0.00 0.00 33 1014.3
20260506164544 7 317 4.8 9.7 0.00 0.00 0.00 31 1014.3
20260506163053 7 319 1.6 8.0 0.00 0.00 0.00 29 1014.2
20260506161544 8 309 1.6 8.0 0.00 0.00 0.00 30 1014.1
20260506160046 8 309 6.4 16.1 0.00 0.00 0.00 32 1014.1
20260506154604 8 322 3.2 12.9 0.00 0.00 0.00 29 1014.1
20260506153043 9 286 3.2 8.0 0.00 0.00 0.00 27 1014.1
20260506151543 10 290 3.2 14.5 0.00 0.00 0.00 28 1014.0
20260506150043 10 294 4.8 12.9 0.00 0.00 0.00 27 1014.2
20260506144551 10 300 3.2 9.7 0.00 0.00 0.00 24 1014.2
20260506143042 10 286 4.8 9.7 0.00 0.00 0.00 26 1014.2
20260506141541 11 338 8.0 19.3 0.00 0.00 0.00 26 1014.1
20260506140041 11 294 4.8 17.7 0.00 0.00 0.00 26 1014.2
20260506134540 11 305 6.4 19.3 0.00 0.00 0.00 29 1014.2
20260506133055 10 333 8.0 16.1 0.00 0.00 0.00 26 1014.1
20260506131539 11 310 4.8 16.1 0.00 0.00 0.00 28 1014.0
20260506130040 11 299 3.2 16.1 0.00 0.00 0.00 32 1014.1
20260506124538 11 292 11.3 20.9 0.00 0.00 0.00 28 1013.9
20260506123037 11 323 6.4 19.3 0.00 0.00 0.00 29 1013.9
20260506121536 11 315 4.8 20.9 0.00 0.00 0.00 30 1013.9
20260506120036 11 323 12.9 27.4 0.00 0.00 0.00 28 1013.8
20260506114539 12 296 4.8 11.3 0.00 0.00 0.00 30 1013.8
20260506113034 12 294 6.4 20.9 0.00 0.00 0.00 28 1013.8
20260506111532 11 319 9.7 20.9 0.00 0.00 0.00 31 1013.6
20260506110039 11 299 6.4 16.1 0.00 0.00 0.00 31 1013.7
20260506104554 11 308 4.8 16.1 0.00 0.00 0.00 30 1013.5
20260506103029 11 318 4.8 11.3 0.00 0.00 0.00 33 1013.5
20260506101532 11 317 6.4 17.7 0.00 0.00 0.00 30 1013.4
20260506100031 11 277 6.4 16.1 0.00 0.00 0.00 32 1013.4
20260506094532 11 309 8.0 20.9 0.00 0.00 0.00 30 1013.3
20260506093023 11 319 8.0 17.7 0.00 0.00 0.00 33 1013.2
20260506091522 10 291 6.4 12.9 0.00 0.00 0.00 36 1013.2